Time,TemperatureF,DewpointF,PressureIn,WindDirection,WindDirectionDegrees,WindSpeedMPH,WindSpeedGustMPH,Humidity,HourlyPrecipIn,Conditions,Clouds,dailyrainin,SoftwareType,DateUTC
2013-02-14 00:00:00,16.0,0.0,-100.00,NW,307,10.0,18.0,48,-99.99,,,-99.99,,2013-02-14 07:00:00,
2013-02-14 00:42:00,16.0,0.0,-100.00,NW,307,10.0,18.0,48,-99.99,,,-99.99,,2013-02-14 07:42:00,
2013-02-14 00:52:00,16.0,0.0,-100.00,NW,307,10.0,18.0,48,-99.99,,,-99.99,,2013-02-14 07:52:00,
2013-02-14 01:00:00,14.0,-6.0,-100.00,NW,311,13.0,18.0,39,-99.99,,,-99.99,,2013-02-14 08:00:00,
2013-02-14 01:43:00,14.0,-6.0,-100.00,NW,311,13.0,18.0,39,-99.99,,,-99.99,,2013-02-14 08:43:00,
2013-02-14 01:52:00,14.0,-6.0,-100.00,NW,311,13.0,18.0,39,-99.99,,,-99.99,,2013-02-14 08:52:00,
2013-02-14 02:00:00,13.0,-3.0,-100.00,NW,322,19.0,28.0,47,-99.99,,,-99.99,,2013-02-14 09:00:00,
2013-02-14 02:42:00,13.0,-3.0,-100.00,NW,322,19.0,28.0,47,-99.99,,,-99.99,,2013-02-14 09:42:00,
2013-02-14 02:52:00,13.0,-3.0,-100.00,NW,322,19.0,28.0,47,-99.99,,,-99.99,,2013-02-14 09:52:00,
2013-02-14 03:00:00,9.0,-4.0,-100.00,NNW,339,17.0,25.0,54,-99.99,,,-99.99,,2013-02-14 10:00:00,
2013-02-14 03:42:00,9.0,-4.0,-100.00,NNW,339,17.0,25.0,54,-99.99,,,-99.99,,2013-02-14 10:42:00,
2013-02-14 03:52:00,9.0,-4.0,-100.00,NNW,339,17.0,25.0,54,-99.99,,,-99.99,,2013-02-14 10:52:00,
2013-02-14 04:00:00,7.0,3.0,-100.00,NNW,336,24.0,36.0,82,-99.99,,,-99.99,,2013-02-14 11:00:00,
2013-02-14 04:42:00,7.0,3.0,-100.00,NNW,336,24.0,36.0,82,-99.99,,,-99.99,,2013-02-14 11:42:00,
2013-02-14 04:52:00,7.0,3.0,-100.00,NNW,336,24.0,36.0,82,-99.99,,,-99.99,,2013-02-14 11:52:00,
2013-02-14 05:00:00,7.0,-2.0,-100.00,NNW,332,26.0,32.0,67,-99.99,,,-99.99,,2013-02-14 12:00:00,
2013-02-14 05:42:00,7.0,-2.0,-100.00,NNW,332,26.0,32.0,67,-99.99,,,-99.99,,2013-02-14 12:42:00,
2013-02-14 05:53:00,7.0,-2.0,-100.00,NNW,332,26.0,32.0,67,-99.99,,,-99.99,,2013-02-14 12:53:00,
2013-02-14 07:00:00,8.0,5.0,-100.00,NNW,342,27.0,32.0,89,-99.99,,,-99.99,,2013-02-14 14:00:00,
2013-02-14 07:42:00,8.0,5.0,-100.00,NNW,342,27.0,32.0,89,-99.99,,,-99.99,,2013-02-14 14:42:00,
2013-02-14 07:52:00,8.0,5.0,-100.00,NNW,342,27.0,32.0,89,-99.99,,,-99.99,,2013-02-14 14:52:00,
2013-02-14 08:00:00,7.0,5.0,-100.00,NNW,344,24.0,35.0,90,-99.99,,,-99.99,,2013-02-14 15:00:00,
2013-02-14 08:42:00,7.0,5.0,-100.00,NNW,344,24.0,35.0,90,-99.99,,,-99.99,,2013-02-14 15:42:00,
2013-02-14 08:52:00,7.0,5.0,-100.00,NNW,344,24.0,35.0,90,-99.99,,,-99.99,,2013-02-14 15:52:00,
2013-02-14 09:00:00,8.0,5.0,-100.00,NNW,341,27.0,36.0,90,-99.99,,,-99.99,,2013-02-14 16:00:00,
2013-02-14 09:42:00,8.0,5.0,-100.00,NNW,341,27.0,36.0,90,-99.99,,,-99.99,,2013-02-14 16:42:00,
2013-02-14 09:52:00,8.0,5.0,-100.00,NNW,341,27.0,36.0,90,-99.99,,,-99.99,,2013-02-14 16:52:00,
2013-02-14 10:00:00,8.0,6.0,-100.00,NNW,344,24.0,39.0,88,-99.99,,,-99.99,,2013-02-14 17:00:00,
2013-02-14 10:42:00,8.0,6.0,-100.00,NNW,344,24.0,39.0,88,-99.99,,,-99.99,,2013-02-14 17:42:00,
2013-02-14 10:52:00,8.0,6.0,-100.00,NNW,344,24.0,39.0,88,-99.99,,,-99.99,,2013-02-14 17:52:00,
2013-02-14 11:00:00,11.0,7.0,-100.00,North,356,10.0,21.0,85,-99.99,,,-99.99,,2013-02-14 18:00:00,
2013-02-14 11:42:00,11.0,7.0,-100.00,North,356,10.0,21.0,85,-99.99,,,-99.99,,2013-02-14 18:42:00,
2013-02-14 11:52:00,11.0,7.0,-100.00,North,356,10.0,21.0,85,-99.99,,,-99.99,,2013-02-14 18:52:00,
2013-02-14 12:00:00,10.0,7.0,-100.00,North,350,12.0,22.0,87,-99.99,,,-99.99,,2013-02-14 19:00:00,
2013-02-14 12:42:00,10.0,7.0,-100.00,North,350,12.0,22.0,87,-99.99,,,-99.99,,2013-02-14 19:42:00,
2013-02-14 12:52:00,10.0,7.0,-100.00,North,350,12.0,22.0,87,-99.99,,,-99.99,,2013-02-14 19:52:00,
2013-02-14 13:00:00,11.0,8.0,-100.00,North,350,10.0,24.0,85,-99.99,,,-99.99,,2013-02-14 20:00:00,
2013-02-14 13:42:00,11.0,8.0,-100.00,North,350,10.0,24.0,85,-99.99,,,-99.99,,2013-02-14 20:42:00,
2013-02-14 13:52:00,11.0,8.0,-100.00,North,350,10.0,24.0,85,-99.99,,,-99.99,,2013-02-14 20:52:00,
2013-02-14 14:00:00,13.0,10.0,-100.00,NW,320,9.0,20.0,87,-99.99,,,-99.99,,2013-02-14 21:00:00,
2013-02-14 14:42:00,13.0,10.0,-100.00,NW,320,9.0,20.0,87,-99.99,,,-99.99,,2013-02-14 21:42:00,
2013-02-14 14:52:00,13.0,10.0,-100.00,NW,320,9.0,20.0,87,-99.99,,,-99.99,,2013-02-14 21:52:00,
2013-02-14 15:00:00,14.0,6.0,-100.00,West,265,6.0,17.0,70,-99.99,,,-99.99,,2013-02-14 22:00:00,
2013-02-14 15:42:00,14.0,6.0,-100.00,West,265,6.0,17.0,70,-99.99,,,-99.99,,2013-02-14 22:42:00,
2013-02-14 15:52:00,14.0,6.0,-100.00,West,265,6.0,17.0,70,-99.99,,,-99.99,,2013-02-14 22:52:00,
2013-02-14 16:00:00,14.0,4.0,-100.00,West,276,7.0,19.0,63,-99.99,,,-99.99,,2013-02-14 23:00:00,
2013-02-14 16:42:00,14.0,4.0,-100.00,West,276,7.0,19.0,63,-99.99,,,-99.99,,2013-02-14 23:42:00,
2013-02-14 16:52:00,14.0,4.0,-100.00,West,276,7.0,19.0,63,-99.99,,,-99.99,,2013-02-14 23:52:00,
2013-02-14 17:00:00,13.0,3.0,-100.00,WNW,282,8.0,23.0,62,-99.99,,,-99.99,,2013-02-15 00:00:00,
2013-02-14 17:42:00,13.0,3.0,-100.00,WNW,282,8.0,23.0,62,-99.99,,,-99.99,,2013-02-15 00:42:00,
2013-02-14 17:52:00,13.0,3.0,-100.00,WNW,282,8.0,23.0,62,-99.99,,,-99.99,,2013-02-15 00:52:00,
2013-02-14 19:00:00,8.0,1.0,-100.00,North,4,19.0,27.0,71,-99.99,,,-99.99,,2013-02-15 02:00:00,
2013-02-14 19:32:00,8.0,1.0,-100.00,North,4,19.0,27.0,71,-99.99,,,-99.99,,2013-02-15 02:32:00,
2013-02-14 19:42:00,8.0,1.0,-100.00,North,4,19.0,27.0,71,-99.99,,,-99.99,,2013-02-15 02:42:00,
2013-02-14 19:52:00,8.0,1.0,-100.00,North,4,19.0,27.0,71,-99.99,,,-99.99,,2013-02-15 02:52:00,
2013-02-14 20:00:00,9.0,8.0,-100.00,North,351,20.0,26.0,94,-99.99,,,-99.99,,2013-02-15 03:00:00,
2013-02-14 20:42:00,9.0,8.0,-100.00,North,351,20.0,26.0,94,-99.99,,,-99.99,,2013-02-15 03:42:00,
2013-02-14 20:52:00,9.0,8.0,-100.00,North,351,20.0,26.0,94,-99.99,,,-99.99,,2013-02-15 03:52:00,
2013-02-14 21:00:00,8.0,6.0,-100.00,NNW,340,19.0,21.0,90,-99.99,,,-99.99,,2013-02-15 04:00:00,
2013-02-14 21:42:00,8.0,6.0,-100.00,NNW,340,19.0,21.0,90,-99.99,,,-99.99,,2013-02-15 04:42:00,
2013-02-14 21:52:00,8.0,6.0,-100.00,NNW,340,19.0,21.0,90,-99.99,,,-99.99,,2013-02-15 04:52:00,
2013-02-14 22:00:00,8.0,6.0,-100.00,NW,324,17.0,21.0,91,-99.99,,,-99.99,,2013-02-15 05:00:00,
2013-02-14 22:42:00,8.0,6.0,-100.00,NW,324,17.0,21.0,91,-99.99,,,-99.99,,2013-02-15 05:42:00,
2013-02-14 22:52:00,8.0,6.0,-100.00,NW,324,17.0,21.0,91,-99.99,,,-99.99,,2013-02-15 05:52:00,
2013-02-14 23:00:00,8.0,6.0,-100.00,NW,322,15.0,19.0,91,-99.99,,,-99.99,,2013-02-15 06:00:00,
2013-02-14 23:42:00,8.0,6.0,-100.00,NW,322,15.0,19.0,91,-99.99,,,-99.99,,2013-02-15 06:42:00,
2013-02-14 23:52:00,8.0,6.0,-100.00,NW,322,15.0,19.0,91,-99.99,,,-99.99,,2013-02-15 06:52:00,